Weather History for KBWP - April, 2013

Change the Weather History Date:

Wednesday, April 10, 2013

  Actual Average (KFFM) Record (KFFM)
Temperature  
Mean Temperature 28 °F -  
Max Temperature 33 °F 48 °F 82 °F (1955)
Min Temperature 23 °F 28 °F 13 °F (1962)
Degree Days  
Heating Degree Days 37    
Moisture  
Dew Point 23 °F    
Average Humidity 78    
Maximum Humidity 87    
Minimum Humidity 69    
Precipitation  
Precipitation 0.00 in - - ()
Sea Level Pressure  
Sea Level Pressure 30.14 in    
Wind  
Wind Speed 14 mph (North)    
Max Wind Speed 18 mph    
Max Gust Speed 26 mph    
Visibility 10 miles    
Events      
Averages and records for this station are not official NWS values.
T = Trace of Precipitation, MM = Missing Value Source: NWS Daily Summary

Daily Weather History Graph

Daily Weather History Graph

Search for Another Location

Airport or City:

Trip Planner

Search our weather history database for the weather conditions in past years. The results will help you decide how hot, cold, wet, or windy it might be!

Date:

Astronomy

Apr. 10, 2013 Rise Set
Actual Time 6:48 AM CDT 8:07 PM CDT
Civil Twilight 6:17 AM CDT 8:38 PM CDT
Nautical Twilight 5:40 AM CDT 9:16 PM CDT
Astronomical Twilight 5:00 AM CDT 9:56 PM CDT
Moon 6:43 AM CDT (4/10) 8:48 PM CDT (4/10)
Length of Visible Light 14h 21m
Length of Day
13h 19m
New Moon, 0% of the Moon is Illuminated
Apr 10
New Moon
Apr 18
First Quarter
Apr 25
Full
May 2
Last Quarter
May 9
New

Hourly Weather History & Observations

Time (CDT) Temp. Windchill Dew Point Humidity Pressure Visibility Wind Dir Wind Speed Gust Speed Precip Events Conditions
12:15 AM 24.8 °F 11.5 °F 19.4 °F 80% 30.26 in 10.0 mi North 17.3 mph - N/A   Overcast
12:35 AM 24.8 °F 11.5 °F 19.4 °F 80% 30.24 in 10.0 mi North 17.3 mph 21.9 mph N/A   Overcast
12:55 AM 24.8 °F 12.9 °F 19.4 °F 80% 30.31 in 10.0 mi North 13.8 mph - N/A   Overcast
1:15 AM 24.8 °F 12.4 °F 19.4 °F 80% 30.30 in 10.0 mi North 15.0 mph 19.6 mph N/A   Overcast
1:35 AM 24.8 °F 11.9 °F 19.4 °F 80% 30.29 in 10.0 mi North 16.1 mph 21.9 mph N/A   Overcast
1:55 AM 24.8 °F 12.4 °F 19.4 °F 80% 30.30 in 10.0 mi North 15.0 mph - N/A   Overcast
2:15 AM 24.8 °F 11.5 °F 19.4 °F 80% 30.28 in 10.0 mi North 17.3 mph 20.7 mph N/A   Overcast
2:35 AM 24.8 °F 11.5 °F 19.4 °F 80% 30.27 in 10.0 mi North 17.3 mph - N/A   Overcast
2:55 AM 24.8 °F 11.1 °F 19.4 °F 80% 30.25 in 10.0 mi North 18.4 mph - N/A   Overcast
3:15 AM 23.0 °F 8.7 °F 19.4 °F 86% 30.23 in 10.0 mi North 18.4 mph 26.5 mph N/A   Mostly Cloudy
3:35 AM 23.0 °F 9.2 °F 19.4 °F 86% 30.19 in 10.0 mi NNE 17.3 mph 26.5 mph N/A   Scattered Clouds
3:55 AM 23.0 °F 9.6 °F 19.4 °F 86% 30.18 in 10.0 mi NNE 16.1 mph 24.2 mph N/A   Unknown
4:15 AM 23.0 °F 10.1 °F 19.4 °F 86% 30.16 in 10.0 mi NNE 15.0 mph - N/A   Unknown
4:35 AM 23.0 °F 10.6 °F 19.4 °F 86% 30.15 in 10.0 mi NNE 13.8 mph - N/A   Unknown
4:55 AM 24.8 °F 14.0 °F 19.4 °F 80% 30.15 in 10.0 mi NNE 11.5 mph - N/A   Unknown
5:15 AM 24.8 °F 17.9 °F 19.4 °F 80% 30.18 in 10.0 mi NNE 5.8 mph - N/A   Mostly Cloudy
5:35 AM 24.8 °F 15.3 °F 19.4 °F 80% 30.15 in 10.0 mi NNE 9.2 mph - N/A   Overcast
5:55 AM 26.6 °F 18.2 °F 19.4 °F 74% 30.16 in 10.0 mi North 8.1 mph - N/A   Overcast
6:15 AM 26.6 °F 18.2 °F 19.4 °F 74% 30.19 in 10.0 mi North 8.1 mph - N/A   Overcast
6:35 AM 26.6 °F 17.5 °F 19.4 °F 74% 30.21 in 10.0 mi North 9.2 mph - N/A   Overcast
6:55 AM 26.6 °F 18.2 °F 19.4 °F 74% 30.23 in 10.0 mi North 8.1 mph - N/A   Overcast
7:15 AM 26.6 °F 15.7 °F 19.4 °F 74% 30.22 in 10.0 mi North 12.7 mph - N/A   Overcast
7:35 AM 24.8 °F 13.4 °F 19.4 °F 80% 30.22 in 10.0 mi North 12.7 mph - N/A   Overcast
7:55 AM 26.6 °F 15.7 °F 19.4 °F 74% 30.23 in 10.0 mi North 12.7 mph - N/A   Mostly Cloudy
8:15 AM 26.6 °F 14.7 °F 19.4 °F 74% 30.22 in 10.0 mi North 15.0 mph - N/A   Unknown
8:35 AM 26.6 °F 14.3 °F 19.4 °F 74% 30.20 in 10.0 mi North 16.1 mph - N/A   Mostly Cloudy
8:55 AM 26.6 °F 14.7 °F 19.4 °F 74% 30.21 in 10.0 mi North 15.0 mph - N/A   Scattered Clouds
9:15 AM 26.6 °F 16.2 °F 19.4 °F 74% 30.20 in 10.0 mi North 11.5 mph - N/A   Unknown
9:35 AM 28.4 °F 19.1 °F 19.4 °F 69% 30.22 in 10.0 mi North 10.4 mph - N/A   Mostly Cloudy
9:55 AM 28.4 °F 18.0 °F 19.4 °F 69% 30.20 in 10.0 mi North 12.7 mph - N/A   Unknown
10:15 AM 28.4 °F 17.5 °F 19.4 °F 69% 30.20 in 10.0 mi North 13.8 mph - N/A   Unknown
10:35 AM 28.4 °F 17.0 °F 21.2 °F 74% 30.19 in 10.0 mi North 15.0 mph - N/A   Unknown
10:55 AM 30.2 °F 20.8 °F 21.2 °F 69% 30.20 in 10.0 mi North 11.5 mph - N/A   Unknown
11:15 AM 30.2 °F 18.9 °F 21.2 °F 69% 30.19 in 10.0 mi North 16.1 mph 20.7 mph N/A   Unknown
11:35 AM 30.2 °F 19.8 °F 23.0 °F 75% 30.19 in 10.0 mi North 13.8 mph - N/A   Clear
11:55 AM 32.0 °F 21.2 °F 23.0 °F 69% 30.17 in 10.0 mi North 16.1 mph - N/A   Unknown
12:15 PM 32.0 °F 21.6 °F 23.0 °F 69% 30.17 in 10.0 mi North 15.0 mph - N/A   Unknown
12:35 PM 32.0 °F 23.0 °F 23.0 °F 69% 30.17 in 10.0 mi North 11.5 mph - N/A   Unknown
12:55 PM 32.0 °F 22.5 °F 23.0 °F 69% 30.16 in 10.0 mi North 12.7 mph - N/A   Unknown
1:15 PM 32.0 °F 22.1 °F 23.0 °F 69% 30.16 in 10.0 mi North 13.8 mph 18.4 mph N/A   Unknown
1:35 PM 32.0 °F 22.5 °F 23.0 °F 69% 30.15 in 10.0 mi North 12.7 mph 20.7 mph N/A   Overcast
1:55 PM 32.0 °F 22.5 °F 23.0 °F 69% 30.15 in 10.0 mi NNE 12.7 mph - N/A   Overcast
2:15 PM 32.0 °F 22.5 °F 23.0 °F 69% 30.14 in 10.0 mi NNE 12.7 mph 19.6 mph N/A   Overcast
2:55 PM 33.8 °F 24.3 °F 24.8 °F 70% 30.13 in 10.0 mi North 13.8 mph - N/A   Unknown
3:15 PM 32.0 °F 20.8 °F 24.8 °F 75% 30.12 in 10.0 mi North 17.3 mph 23.0 mph N/A   Unknown
3:35 PM 32.0 °F 22.1 °F 24.8 °F 75% 30.14 in 10.0 mi North 13.8 mph 18.4 mph N/A   Overcast
3:55 PM 32.0 °F 21.6 °F 24.8 °F 75% 30.12 in 10.0 mi North 15.0 mph - N/A   Mostly Cloudy
4:15 PM 32.0 °F 21.6 °F 26.6 °F 80% 30.11 in 10.0 mi North 15.0 mph 19.6 mph N/A   Scattered Clouds
4:35 PM 32.0 °F 22.5 °F 26.6 °F 80% 30.11 in 10.0 mi North 12.7 mph - N/A   Mostly Cloudy
4:55 PM 32.0 °F 21.2 °F 26.6 °F 80% 30.10 in 10.0 mi North 16.1 mph 20.7 mph N/A   Scattered Clouds
5:15 PM 32.0 °F 21.2 °F 26.6 °F 80% 30.09 in 10.0 mi North 16.1 mph 19.6 mph N/A   Scattered Clouds
5:35 PM 32.0 °F 22.1 °F 26.6 °F 80% 30.08 in 10.0 mi North 13.8 mph 19.6 mph N/A   Clear
5:55 PM 32.0 °F 23.6 °F 26.6 °F 80% 30.06 in 10.0 mi North 10.4 mph - N/A   Scattered Clouds
6:15 PM 32.0 °F 22.1 °F 26.6 °F 80% 30.05 in 10.0 mi North 13.8 mph - N/A   Scattered Clouds
6:35 PM 32.0 °F 22.5 °F 26.6 °F 80% 30.04 in 10.0 mi North 12.7 mph - N/A   Clear
6:55 PM 32.0 °F 23.0 °F 26.6 °F 80% 30.04 in 10.0 mi North 11.5 mph - N/A   Mostly Cloudy
7:15 PM 32.0 °F 22.5 °F 28.4 °F 87% 30.04 in 10.0 mi North 12.7 mph 17.3 mph N/A   Overcast
7:35 PM 32.0 °F 21.6 °F 28.4 °F 87% 30.03 in 10.0 mi North 15.0 mph - N/A   Overcast
7:55 PM 32.0 °F 21.6 °F 28.4 °F 87% 30.01 in 10.0 mi North 15.0 mph - N/A   Overcast
8:15 PM 32.0 °F 22.1 °F 28.4 °F 87% 29.99 in 10.0 mi North 13.8 mph - N/A   Overcast
8:35 PM 32.0 °F 23.0 °F 28.4 °F 87% 29.99 in 10.0 mi North 11.5 mph - N/A   Overcast
8:55 PM 32.0 °F 23.0 °F 28.4 °F 87% 29.98 in 10.0 mi North 11.5 mph - N/A   Overcast
9:15 PM 32.0 °F 23.6 °F 28.4 °F 87% 29.99 in 10.0 mi North 10.4 mph - N/A   Overcast
9:35 PM 32.0 °F 22.5 °F 28.4 °F 87% 29.99 in 10.0 mi North 12.7 mph - N/A   Overcast
9:55 PM 32.0 °F 24.2 °F 28.4 °F 87% 30.00 in 10.0 mi North 9.2 mph - N/A   Overcast
10:15 PM 32.0 °F 24.2 °F 28.4 °F 87% 30.00 in 10.0 mi North 9.2 mph - N/A   Overcast
10:35 PM 32.0 °F 24.8 °F 26.6 °F 80% 30.01 in 10.0 mi North 8.1 mph - N/A   Overcast
10:55 PM 32.0 °F 24.2 °F 26.6 °F 80% 30.00 in 10.0 mi NNE 9.2 mph - N/A   Overcast
11:15 PM 32.0 °F 23.6 °F 28.4 °F 87% 30.00 in 10.0 mi North 10.4 mph - N/A   Overcast
11:35 PM 32.0 °F 23.6 °F 28.4 °F 87% 29.99 in 10.0 mi NNE 10.4 mph - N/A   Overcast
11:55 PM 32.0 °F 26.4 °F 28.4 °F 87% 29.99 in 10.0 mi NNE 5.8 mph - N/A   Overcast